Vertical_Velocity
-1 -4 -1 0 1 -4 2 -4 3 -1 -1 3 2 -0 -1 -1 -2 -4 -3 -3 -2 -1 1 -3 -2 -1 0 6 -4 10 -1 8
-1 1 0 -2 -4 -0 7 -0 -2 1 -1 -3 -0 -1 -4 -1 -2 -5 -1 -1 -3 -4 -6 -9 -12 -10 0 0 -1 -5 3 0
-1 -3 -2 -3 -4 -4 0 -4 -1 -1 -3 -1 -3 -5 -6 -9 -9 -10 -8 -6 -7 -6 -5 -1 -3 -2 -7 -3 -3 -4 -0 -3
-0 1 1 -2 -1 -1 -1 -3 -4 -3 -4 2 -1 -2 -4 -2 -4 1 -1 -4 -3 -5 -3 -1 -2 -2 -1 1 -5 -4 -1 1
-3 -7 5 -9 -3 -3 -2 -3 -2 -4 -4 -6 -5 -9 -9 -7 -7 -6 -2 -2 -1 1 -4 -6 -3 -2 -1 -2 1 -4 -5 5
-3 -7 -1 0 -2 -3 -1 -0 -5 -3 -2 -6 -7 -6 -8 -8 -7 -3 -2 0 1 -0 -0 1 -2 -2 -1 0 1 -2 -2 1
-4 -1 -7 0 -3 -2 1 -5 -5 -6 -6 -2 -4 -6 -3 -5 -0 3 -3 -3 -1 -0 -1 -1 0 -2 -2 -1 -1 -1 1 2
0 2 -0 -4 -2 -1 -5 -5 -4 -3 -4 -3 -0 1 -1 -4 -3 -4 -3 0 -0 -0 -0 2 1 0 -2 -3 -2 -0 0 1
-2 -0 -2 -4 -4 -3 -6 -3 -5 -3 -4 -2 -4 -4 -6 -4 -2 -2 -1 -2 -1 -1 -4 -2 -2 -2 -2 -1 -2 0 4 2
-1 -1 -1 -1 -2 -4 -3 0 -1 -1 -3 -5 -5 -6 -2 2 2 -1 -2 -3 0 -2 -2 -3 -5 -1 4 8 -2 -2 -0 2
-3 -3 -1 -3 -4 2 -2 -4 -4 -5 -4 -7 -3 -2 -2 -0 -1 -2 -3 -3 1 -2 -1 0 1 -2 6 3 0 0 -0 4
-3 -3 -3 -1 -2 -4 -0 -4 -1 -6 -3 -2 -2 -2 -1 -4 -3 -5 -3 -2 -1 -2 0 -0 0 0 -2 3 2 -2 -0 4
-0 -0 1 -1 -3 -2 1 -4 -3 -4 -1 -2 -2 -2 -3 -4 -5 -3 -3 -5 -4 -1 1 -3 -1 1 2 -2 0 0 1 5
1 -2 -2 -4 -4 1 -5 -2 -2 -2 -2 -2 -4 -2 -4 -2 -3 -2 -3 -3 -0 -2 -2 -1 2 1 4 1 -2 2 3 5
-3 -1 -2 0 -3 -1 -2 -2 -2 -2 -1 -2 -1 0 -2 -1 -0 -0 -3 -2 -2 -2 -2 1 -0 -0 2 1 4 -1 1 -1
-3 -2 -2 -2 0 0 -3 -4 -6 -3 -1 -2 -1 1 -2 -2 -4 -3 -1 -3 -0 -0 -4 -6 -0 4 1 -2 0 4 1 -0
-2 -4 2 -3 -0 -0 -3 -4 -4 -1 1 -1 -0 0 -0 -2 -1 -4 -0 -2 -4 -4 -1 1 -2 -5 2 1 -2 0 -2 1
-2 0 1 -2 -2 -2 -0 -2 -2 -1 -1 -1 1 -0 -0 -2 -2 -3 -3 -2 -1 0 -1 1 3 2 -3 -3 2 -2 -1 2
-0 1 1 0 -2 -2 -0 -1 -1 -1 -1 -1 2 1 -0 -2 -3 -3 -3 -3 -3 -3 -4 -5 -5 -1 2 0 -2 -1 -1 1
Height
5830 5824 5819 5812 5805 5796 5788 5778 5770 5760 5749 5740 5728 5714 5700 5684 5669 5654 5639 5623 5608 5599 5590 5581 5576 5574 5572 5571 5576 5581 5583 5589
5824 5818 5812 5804 5796 5787 5778 5768 5758 5747 5736 5725 5712 5698 5683 5665 5648 5631 5613 5601 5591 5581 5573 5566 5559 5554 5549 5547 5548 5551 5557 5559
5817 5810 5804 5796 5788 5778 5768 5757 5746 5735 5723 5710 5696 5681 5663 5645 5627 5611 5599 5589 5581 5573 5565 5558 5551 5545 5539 5535 5532 5532 5533 5536
5811 5804 5797 5787 5778 5767 5757 5745 5734 5723 5710 5697 5682 5664 5646 5628 5614 5603 5592 5583 5573 5564 5554 5545 5537 5531 5526 5522 5521 5519 5520 5519
5804 5796 5788 5776 5767 5757 5746 5734 5722 5710 5698 5684 5668 5652 5636 5620 5607 5594 5583 5574 5563 5553 5542 5533 5525 5518 5513 5508 5505 5503 5502 5503
5796 5787 5779 5768 5757 5746 5734 5725 5713 5700 5686 5671 5655 5641 5625 5612 5600 5588 5577 5566 5555 5544 5532 5523 5515 5508 5502 5498 5494 5492 5489 5488
5787 5778 5769 5760 5748 5736 5727 5716 5704 5690 5676 5660 5646 5632 5618 5606 5594 5582 5571 5559 5548 5536 5525 5515 5508 5501 5495 5490 5486 5483 5479 5477
5781 5771 5760 5750 5740 5729 5718 5707 5695 5680 5666 5652 5639 5625 5612 5599 5586 5575 5564 5553 5541 5529 5518 5509 5501 5495 5490 5484 5480 5475 5471 5468
5772 5762 5751 5741 5732 5721 5710 5699 5686 5672 5658 5645 5631 5617 5604 5592 5581 5569 5558 5546 5535 5523 5513 5504 5498 5492 5485 5478 5472 5467 5463 5460
5763 5753 5743 5733 5723 5712 5702 5691 5678 5664 5651 5639 5626 5612 5599 5588 5576 5564 5552 5541 5531 5521 5511 5503 5496 5488 5479 5469 5460 5458 5456 5453
5755 5745 5735 5725 5715 5704 5693 5682 5670 5658 5645 5634 5621 5610 5597 5586 5573 5562 5550 5539 5529 5521 5512 5504 5495 5484 5474 5459 5451 5452 5452 5450
5748 5738 5728 5718 5709 5698 5686 5675 5663 5652 5641 5631 5620 5608 5597 5586 5573 5561 5549 5540 5530 5522 5513 5505 5496 5486 5474 5462 5454 5451 5450 5449
5740 5731 5721 5712 5702 5691 5679 5669 5658 5647 5637 5627 5617 5606 5596 5586 5573 5562 5552 5542 5533 5524 5514 5505 5497 5489 5479 5470 5462 5457 5452 5449
5733 5723 5714 5704 5694 5684 5672 5662 5652 5642 5633 5623 5614 5604 5595 5585 5574 5563 5553 5544 5534 5525 5516 5508 5499 5492 5484 5476 5467 5462 5457 5454
5725 5715 5706 5696 5686 5676 5667 5656 5646 5637 5629 5620 5611 5602 5593 5584 5574 5564 5554 5545 5536 5526 5517 5509 5501 5492 5484 5479 5474 5467 5462 5460
5718 5708 5699 5689 5679 5670 5659 5650 5640 5632 5624 5616 5607 5599 5591 5582 5573 5563 5554 5545 5536 5527 5519 5511 5502 5495 5489 5482 5476 5472 5468 5463
5710 5701 5691 5683 5673 5662 5653 5643 5634 5626 5619 5611 5603 5595 5587 5579 5570 5561 5552 5543 5535 5527 5519 5511 5504 5496 5489 5483 5478 5473 5469 5466
5702 5693 5684 5676 5666 5655 5646 5636 5628 5620 5613 5606 5599 5591 5583 5575 5567 5559 5549 5541 5534 5527 5518 5510 5502 5496 5489 5482 5476 5472 5468 5465
5695 5686 5677 5669 5659 5649 5640 5630 5622 5614 5608 5601 5594 5587 5579 5572 5564 5556 5547 5539 5532 5525 5516 5508 5499 5491 5485 5480 5474 5469 5465 5461